User: anonymous   Login
Location: Paralde Spring
(38.5794°N, 119.0140°W)
Time: 12:15:08
(UTC+00:00)
Language:

Cosmos 1500 - Orbit

View from above orbital plane
View from above orbital plane
View from above satellite
View from above satellite

Ground track
Ground track

The orbit data is extracted from the following two-line orbital elements,

1 14372U 83099A   20329.83932743 +.00001024 +00000-0 +47310-4 0  9997
2 14372 082.5149 180.2596 0015967 037.5352 333.1781 15.18949754028146
Epoch (UTC): 24 November 2020 20:08:37
Eccentricity: 0.0015967
inclination: 82.5149°
perigee height: 498 km
apogee height: 520 km
right ascension of ascending node: 180.2596°
argument of perigee: 37.5352°
revolutions per day: 15.18949754
mean anomaly at epoch: 333.1781°
orbit number at epoch: 2814

The dashed part of the orbit path shows where the satellite is in the earth's shadow,  

DLR